Regional Weather Roundup
Issued by NWS Wilmington, NC

Home | Current Version | Previous Version | Text Only | Print | Product List | Glossary On
Versions: 1 2 3 4 5 6 7 8 9 10 11 12 13 14 15 16 17 18 19 20 21 22 23 24 25 26 27 28 29 30 31 32 33 34 35 36 37 38 39 40 41 42 43 44 45 46 47 48 49 50
000
ASUS42 KILM 052113
RWRILM
RWRILM
REGIONAL HOURLY WEATHER ROUNDUP
NATIONAL WEATHER SERVICE WILMINGTON NC
500 PM EDT SUN JUL 05 2015

NOTE: "FAIR" INDICATES FEW OR NO CLOUDS BELOW 12,000 FEET WITH NO
SIGNIFICANT WEATHER AND/OR OBSTRUCTIONS TO VISIBILITY.

...............WFO WILMINGTON COUNTY WARNING AREA...............

......COASTAL NC AND SC COUNTIES......

CITY           SKY/WX    TMP DP  RH WIND       PRES   REMARKS
WILMINGTON     MOSUNNY   88  72  58 S16G23    30.08F HX  94
N MYRTLE BEACH SUNNY     85  75  72 S20       30.10F HX  93
MYRTLE BEACH   MOSUNNY   88  73  62 S20G26    30.12R HX  96

......INLAND NC AND SC COUNTIES.......

CITY           SKY/WX    TMP DP  RH WIND       PRES   REMARKS
LUMBERTON      MOSUNNY   91  69  48 S8        30.05F HX  96
ELIZABETHTOWN  MOSUNNY   91  70  50 S9        30.07F HX  96
WHITEVILLE     MOSUNNY   88  73  60 S9        30.08S HX  96
FLORENCE       MOSUNNY   90  70  51 S12       30.06F HX  95
DARLINGTON     SUNNY     91  70  49 S10G17    30.06F HX  97

....................REST OF NORTH CAROLINA......................

.........EASTERN NC.........

CITY           SKY/WX    TMP DP  RH WIND       PRES   REMARKS
CAPE HATTERAS  SUNNY     82  75  79 SW12      30.12F
JACKSONVILLE   SUNNY     91  70  49 SE10      30.07F HX  97
MOREHEAD CITY  MOSUNNY   84  76  76 SW13      30.10F HX  93
KENANSVILLE    SUNNY     90  66  45 SW7       30.07F HX  92
NEW BERN       SUNNY     89  71  55 S10       30.09F HX  95
ELIZABETH CITY PTSUNNY   81  76  84 NE10      30.08F

.........CENTRAL NC.........

CITY           SKY/WX    TMP DP  RH WIND       PRES   REMARKS
RALEIGH DURHAM CLOUDY    82  72  71 SW8       30.07R
ROCKY MOUNT    PTSUNNY   90  70  51 S8        30.06S HX  95
ROANOKE RAPIDS NOT AVBL
FAYETTEVILLE   SUNNY     91  69  48 S12       30.05F HX  96
HOFFMAN        MOSUNNY   83  75  76 SE2       30.09F HX  90

.........WESTERN NC.........

CITY           SKY/WX    TMP DP  RH WIND       PRES   REMARKS
CHARLOTTE      CLOUDY    81  69  67 S8        30.06F
GREENSBORO     PTSUNNY   86  67  52 S12       30.05F
HICKORY        NOT AVBL
BOONE          NOT AVBL
ASHEVILLE      NOT AVBL

.....................REST OF SOUTH CAROLINA.....................

.........EASTERN SC.........

CITY           SKY/WX    TMP DP  RH WIND       PRES   REMARKS
CHARLESTON     CLOUDY    83  70  64 SW6       30.11F
BEAUFORT MCAS  CLOUDY    80  75  84 S5        30.11R
HILTON HEAD    PTSUNNY   82  75  78 CALM      30.13R

.........CENTRAL SC.........

CITY           SKY/WX    TMP DP  RH WIND       PRES   REMARKS
COLUMBIA       LGT RAIN  78  71  79 SW15      30.08R
ORANGEBURG     LGT RAIN  77  71  82 E3        30.09F
SUMTER SHAW    PTSUNNY   87  69  56 S22G30    30.05F HX  91

.........WESTERN SC.........

CITY           SKY/WX    TMP DP  RH WIND       PRES   REMARKS
GREENVILLE     NOT AVBL
ROCK HILL      MOSUNNY   80  72  76 SW6       30.07F
ANDERSON       MOSUNNY   79  70  74 S10       30.07F
CLEMSON        NOT AVBL
GREENWOOD      MOSUNNY   83  66  56 SW12      30.09F


...................COASTAL AND OFFSHORE REPORTS..................

................LOCAL PIERS AND NC RESERVE................


STATION/POSITION TIME  SKY/WX   TEMP    WIND        PRES    VSBY
                                AIR SEA DIR/SP/G
                 (UTC)          (F)     (DEG/KT/KT) (MB)    (MI)
JOHNY MRCER PIER 2000            80 80  180/ 17/ 19 1019.0F
NC RESRV MASNBRO NOT AVBL
OCEAN CREST PIER NOT AVBL
SPRINGMAID  PIER 2000            81 83  170/ 19/ 23 1019.7F


................COASTAL AND OFFSHORE BUOYS................


STATION/POSITION TIME  SKY/WX   TEMP    WIND        PRES    VSBY
                                AIR SEA DIR/SP/G
                 (UTC)          (F)     (DEG/KT/KT) (MB)    (MI)
DIMNDSHOAL 41025 2050            81 81  220/ 14/ 16 1019.8F
WVE H/P(F/S)=  3/ 5 WND WVE H/P(F/S)=  3/ 5 SWL H/P/D(F/S/D)=  2/120/ 9

CAPE LOOKOUT     2100            82     200/ 12/ 15 1019.2F
ONSLOW BAY 41036 NOT AVBL
5 WRITEBCH 41038 NOT AVBL
MASONBORO  41110 2019               80                N/A
WVE H/P(F/S)=  2/ 8 WND WVE H/P(F/S)=  2/ 8

WILM HARBR 41108 2011               82                N/A
WVE H/P(F/S)=  3/ 5 WND WVE H/P(F/S)=  3/ 5

27WRITEBCH 41037 2000               81  210/ 12/ 14   N/A
FRYING PAN 41013 2050            81 80  200/ 12/ 16 1020.0F
WVE H/P(F/S)=  3/ 8 WND WVE H/P(F/S)=  3/ 5 SWL H/P/D(F/S/D)=  2/120/ 8

SUNST NRSH 41024 2008            81     190/ 16/ 19 1019.4F
CAPRS NRSH 41029 2008            83     200/ 14/ 17 1020.5F
EDISTO     41004 2050            82 83  190/ 14/ 16 1019.5F
WVE H/P(F/S)=  3/ 9 WND WVE H/P(F/S)=  2/ 3 SWL H/P/D(F/S/D)=  2/ 9



..........OFFSHORE BUOYS BEYOND 100 NM OFFSHORE...........
.....IN A TRIANGLE---HAT TO BERMUDA TO BAHAMAS TO HAT.....


STATION/POSITION TIME  SKY/WX   TEMP    WIND        PRES    VSBY
                                AIR SEA DIR/SP/G
                 (UTC)          (F)     (DEG/KT/KT) (MB)    (MI)
150E HAT   41001 NOT AVBL
W BERMUDA  41048 2050            82 82  220/  6/  6 1023.6F
WVE H/P(F/S)=  4/ 7 WND WVE H/P(F/S)=  2/ 4 SWL H/P/D(F/S/D)=  3/290/ 7

ATLANTIC S 41049 2050            83 84   60/ 10/ 12 1024.0F
WVE H/P(F/S)=  4/ 8 WND WVE H/P(F/S)=  2/ 4 SWL H/P/D(F/S/D)=  3/150/ 8

E BAHAMAS  41046 2050            83 84   90/ 12/ 14 1021.5F
WVE H/P(F/S)=  5/ 7 WND WVE H/P(F/S)=  3/ 5 SWL H/P/D(F/S/D)=  5/120/ 7

NE BAHAMAS 41047 2050            83 85  130/  8/ 10 1022.7
WVE H/P(F/S)=  4/ 9 WND WVE H/P(F/S)=  2/ 4 SWL H/P/D(F/S/D)=  5/130/ 9

120E CANVRL41010 2020            80 84  100/  4/  6 1021.5F

END



USA.gov is the U.S. government's official web portal to all federal, state and local government web resources and services.